KT4FD Weather Reports


Display with metric or nautical units.
time (UTC)temp
F
wind
direction
speed
MPH
gust
MPH
rain 1hr
in
rain 24hr
in
rain mn
in
humidity
%
barometer
mb
20260507102003 60 325 1.0 12.0 0.39 1.54 0.83 87 1012.8
20260507101002 60 302 7.0 12.0 0.13 1.27 0.57 87 1013.7
20260507100003 60 272 0.0 3.0 0.13 1.26 0.56 87 1011.6
20260507095003 60 271 0.0 0.0 0.10 1.22 0.52 87 1012.2
20260507094003 60 271 0.0 3.0 0.07 1.17 0.47 87 1012.6
20260507093002 60 271 0.0 0.0 0.06 1.15 0.45 87 1012.4
20260507092003 60 271 0.0 0.0 0.07 1.15 0.45 87 1012.5
20260507091003 60 271 0.0 0.0 0.10 1.14 0.44 87 1012.1
20260507090005 60 271 0.0 0.0 0.11 1.13 0.42 87 1012.3
20260507085003 60 271 0.0 0.0 0.16 1.13 0.42 87 1012.9
20260507084003 60 271 0.0 0.0 0.13 1.10 0.40 87 1013.0
20260507083003 60 271 0.0 0.0 0.15 1.09 0.39 87 1012.6
20260507082003 61 271 0.0 0.0 0.21 1.08 0.38 87 1012.5
20260507081003 61 271 1.0 3.0 0.21 1.04 0.34 87 1012.6
20260507080003 61 271 0.0 1.0 0.21 1.02 0.31 87 1012.6
20260507075003 61 271 0.0 3.0 0.17 0.97 0.27 87 1012.8
20260507054004 61 218 2.0 3.0 0.06 0.77 0.07 87 1014.9
20260507053004 61 218 2.0 3.0 0.06 0.76 0.06 87 1014.8
20260507052003 61 217 0.0 3.0 0.05 0.75 0.05 87 1014.6
20260507051003 61 217 0.0 2.0 0.04 0.74 0.04 87 1014.8
20260507050003 61 217 0.0 0.0 0.04 0.74 0.04 87 1015.0
20260507045003 61 217 0.0 0.0 0.02 0.73 0.02 87 1015.2
20260507044003 61 217 0.0 3.0 0.01 0.71 0.01 87 1015.3
20260507043003 62 217 0.0 0.0 0.01 0.70 0.00 86 1015.0
20260507042003 62 218 0.0 0.0 0.01 0.70 0.00 86 1014.7
20260507041003 62 218 0.0 0.0 0.06 0.70 0.00 86 1015.0
20260507040003 62 218 0.0 0.0 0.11 0.70 0.00 86 1014.8
20260507035003 62 218 0.0 0.0 0.13 0.70 0.70 86 1014.7
20260507034003 62 218 0.0 0.0 0.13 0.70 0.70 86 1014.8
20260507033003 62 218 0.0 2.0 0.15 0.69 0.69 86 1014.4
20260507032003 62 218 1.0 3.0 0.15 0.69 0.69 86 1014.5
20260507031003 62 241 2.0 3.0 0.11 0.65 0.65 86 1015.2
20260507030003 62 242 1.0 5.0 0.06 0.60 0.60 86 1015.1
20260507025003 62 262 0.0 3.0 0.04 0.57 0.57 86 1015.3
20260507024003 62 267 0.0 0.0 0.05 0.57 0.57 86 1014.8
20260507012003 62 267 0.0 0.0 0.16 0.50 0.50 85 1015.5
20260507011003 62 267 0.0 0.0 0.17 0.50 0.50 85 1015.4
20260507010003 63 267 0.0 3.0 0.18 0.50 0.50 85 1014.9
20260507005003 63 265 1.0 8.0 0.34 0.48 0.48 85 1015.8
20260507004003 63 146 2.0 7.0 0.28 0.42 0.42 85 1015.7
20260507003003 63 346 0.0 2.0 0.21 0.35 0.35 85 1014.8
20260506232003 64 296 0.0 1.0 0.04 0.15 0.15 85 1013.2
20260506231003 64 297 0.0 1.0 0.04 0.15 0.15 85 1013.2
20260506230003 64 301 0.0 0.0 0.02 0.13 0.13 85 1014.0
20260506225003 65 301 0.0 0.0 0.05 0.13 0.13 85 1014.3
20260506224003 65 301 0.0 1.0 0.05 0.13 0.13 85 1014.6
20260506223003 65 301 0.0 3.0 0.05 0.13 0.13 85 1014.6
20260506212003 69 292 0.0 3.0 0.00 0.08 0.08 85 1013.8
20260506211003 69 292 2.0 3.0 0.00 0.08 0.08 85 1014.0
20260506210004 69 292 0.0 1.0 0.00 0.08 0.08 85 1014.0
20260506205003 68 291 0.0 0.0 0.00 0.08 0.08 85 1014.0
20260506204003 68 291 0.0 0.0 0.00 0.08 0.08 85 1014.5
20260506203003 68 291 0.0 2.0 0.00 0.08 0.08 85 1014.8
20260506160003 63 217 0.0 5.0 0.05 0.08 0.08 85 1015.9
20260506155003 63 157 1.0 3.0 0.05 0.08 0.08 85 1015.6
20260506154003 63 181 1.0 8.0 0.05 0.08 0.08 85 1017.5
20260506153003 63 202 2.0 3.0 0.02 0.06 0.06 85 1017.7
20260506152004 63 202 1.0 3.0 0.06 0.06 0.06 85 1016.9
20260506141003 63 211 3.0 6.0 0.00 0.00 0.00 84 1016.4
20260506140003 63 211 2.0 7.0 0.00 0.00 0.00 84 1016.4
20260506135004 63 223 5.0 8.0 0.00 0.00 0.00 84 1016.3
20260506134003 63 213 4.0 8.0 0.00 0.00 0.00 84 1016.2
20260506133003 63 208 3.0 6.0 0.00 0.00 0.00 84 1016.3
20260506132004 63 213 2.0 6.0 0.00 0.00 0.00 85 1016.2
20260506110003 61 203 2.0 3.0 0.00 0.00 0.00 82 1015.3
20260506105003 62 204 2.0 3.0 0.00 0.00 0.00 82 1015.6
20260506104003 62 204 2.0 3.0 0.00 0.00 0.00 80 1015.4
20260506103003 62 204 0.0 0.0 0.00 0.00 0.00 80 1015.2